Theta_e
291 291 291 290 290 291 291 292 293 293 294 295 296 296 296 296 300 303 306 310 311 312 313 312 309 308 303 301 299 300 298 296 292 284 286 288 291 289 287 287 288 288 292
290 289 289 290 290 289 289 290 292 291 292 293 295 295 295 295 297 301 303 307 309 309 310 309 308 306 302 300 298 297 297 291 287 283 283 285 286 288 287 286 286 287 287
289 289 288 288 289 288 288 289 290 291 291 292 292 293 294 295 295 298 301 305 308 310 310 307 305 303 299 298 297 296 294 291 287 285 283 284 284 286 284 286 285 285 287
288 288 287 288 288 289 289 289 290 290 290 291 293 293 293 294 295 295 299 299 306 309 310 306 304 300 299 296 295 294 291 288 288 287 285 283 283 284 285 284 282 284 284
286 287 287 289 288 288 288 289 289 290 290 290 291 293 293 293 294 295 298 299 304 306 307 305 303 299 295 296 296 293 291 290 288 287 285 283 280 281 281 283 283 283 284
287 287 287 287 287 287 288 288 289 289 289 290 290 291 292 293 294 295 297 297 304 304 300 298 298 291 292 293 294 293 293 290 288 287 285 285 283 282 283 282 283 282 280
286 286 286 286 286 286 287 288 288 289 288 288 289 291 291 293 294 294 294 300 301 300 295 293 291 291 290 292 293 293 293 294 293 291 287 287 284 284 284 281 283 283 285
285 285 286 285 285 286 285 286 287 287 287 288 289 291 292 293 294 295 293 296 295 294 294 293 292 289 291 290 289 288 287 287 287 287 289 286 286 285 285 284 283 283 280
284 284 285 285 285 285 285 285 286 287 286 286 287 290 290 291 294 293 291 290 288 288 289 289 289 288 289 290 288 285 284 284 288 289 288 288 287 287 284 283 282 282 281
284 285 285 285 285 285 285 285 285 286 286 286 286 287 288 291 293 292 290 288 286 286 286 286 286 287 290 290 287 285 282 282 283 283 283 285 285 285 285 285 283 283 282
285 285 285 285 285 285 285 285 285 285 286 285 285 286 287 288 290 291 290 288 286 285 285 285 287 290 290 290 289 286 283 284 284 283 283 283 283 283 282 282 283 284 283
285 285 285 285 285 286 286 286 286 286 285 285 285 285 285 286 288 290 289 288 288 286 285 285 287 289 289 289 287 287 286 284 283 282 282 281 281 282 282 282 281 282 281
285 285 285 285 285 285 285 285 285 285 285 284 284 284 283 284 285 288 289 289 288 285 285 287 289 289 288 288 288 286 283 283 282 282 281 280 280 281 279 279 279 279 279
284 285 285 285 285 285 286 286 286 285 284 284 284 283 283 284 284 285 284 285 285 285 285 285 285 285 285 284 283 283 283 283 283 283 282 281 281 282 282 282 281 281 280
285 285 285 285 285 285 284 285 285 285 285 285 284 284 284 283 284 285 285 284 284 284 284 284 283 282 282 281 281 281 283 284 283 283 282 281 281 280 280 280 280 279 278
285 285 285 286 286 285 285 284 287 287 287 287 287 285 284 286 287 287 286 286 286 285 282 281 281 281 280 280 279 278 279 279 280 280 280 279 279 278 278 279 279 278 276
284 284 285 284 283 283 285 285 283 285 287 287 287 287 287 286 286 285 285 285 284 284 281 280 279 279 279 279 279 278 277 277 279 279 278 277 278 277 277 275 274 274 274
280 277 283 283 282 282 282 282 283 283 282 283 287 286 285 285 284 284 284 283 281 281 280 279 278 279 279 278 278 276 275 275 273 273 272 271 271 272 271 269 269 268 268
282 281 281 280 281 281 281 281 282 282 281 282 282 281 282 283 284 284 284 282 279 278 278 277 277 276 275 274 272 271 271 269 269 268 268 267 268 268 266 266 266 262 264
279 276 279 281 280 280 281 280 280 279 279 280 280 280 280 279 278 278 279 278 276 275 274 272 271 270 270 269 269 269 268 268 267 266 266 266 266 267 265 264 264 264 263
280 278 276 280 280 280 280 279 280 279 278 278 278 278 277 275 274 273 272 274 273 271 269 268 267 267 267 267 268 267 267 266 265 265 265 264 265 263 263 263 263 262 262
279 279 279 279 277 278 279 279 279 277 276 275 274 274 273 271 269 268 267 266 267 268 268 267 267 266 267 267 267 266 265 264 264 264 263 262 263 262 263 263 263 263 262
278 277 276 275 276 277 278 277 276 275 272 270 269 268 268 267 266 266 265 265 265 264 265 265 264 263 263 263 265 267 266 265 265 265 264 263 263 264 263 264 262 262 262
279 277 276 275 276 276 275 274 271 269 269 268 268 267 266 265 265 263 263 263 263 263 263 263 263 262 261 263 263 263 263 263 262 262 263 264 264 261 264 263 263 261 261
280 278 276 275 274 274 272 270 269 268 268 267 266 265 264 264 263 263 262 262 262 262 261 261 262 262 261 261 261 262 261 261 260 261 261 263 264 263 262 262 261 261 261
279 277 275 273 272 271 270 268 268 267 266 266 265 265 264 263 263 262 262 262 261 261 261 261 261 261 261 262 262 262 263 265 263 259 265 265 265 265 264 262 261 261 261
Wind_Speed
16 17 16 15 16 16 15 17 18 17 16 16 16 15 17 15 19 18 18 18 21 18 17 19 19 18 12 10 10 11 10 6 7 2 3 2 13 13 12 10 10 10 11
16 16 17 17 17 17 16 17 18 17 16 17 16 16 16 17 16 19 19 18 21 21 19 18 19 14 17 15 12 14 13 7 7 9 5 4 7 13 11 13 9 7 7
18 16 17 17 17 16 17 17 17 17 17 17 16 16 15 16 16 17 17 17 18 19 19 18 17 16 15 12 13 13 9 8 6 9 6 4 2 7 9 8 8 8 7
18 17 17 17 17 16 16 16 16 16 16 16 16 17 15 15 15 15 16 16 16 17 17 16 16 17 17 15 14 13 11 10 8 10 5 8 4 6 8 10 7 6 8
18 17 18 17 15 15 15 16 16 15 14 15 14 15 14 15 13 16 17 16 16 16 15 14 14 17 20 19 12 13 14 11 11 11 9 5 6 9 13 9 8 7 7
15 15 16 14 14 14 14 15 15 14 13 12 14 14 13 9 13 13 15 14 15 14 12 9 11 11 15 21 20 23 21 16 11 8 5 10 11 9 9 9 7 6 5
14 15 13 13 13 13 13 11 7 6 8 10 11 11 11 11 13 14 11 15 13 12 12 11 8 7 11 11 12 15 12 14 14 10 17 12 11 12 12 10 7 7 4
12 13 12 12 13 12 10 9 4 2 4 5 7 8 8 8 13 15 11 8 9 10 12 12 12 12 13 14 13 11 8 7 6 4 7 8 7 11 12 8 11 7 4
12 12 12 11 12 10 10 9 6 4 4 2 2 6 7 5 12 17 9 10 11 9 7 8 11 12 19 23 15 13 13 9 13 16 17 15 17 18 14 9 6 7 3
11 11 11 10 9 9 9 9 7 6 6 5 8 5 6 7 17 18 13 8 10 9 8 8 11 14 22 23 15 15 14 9 13 13 11 14 12 12 12 4 8 7 3
9 8 9 9 8 8 7 7 7 8 9 9 11 10 11 9 8 15 18 9 9 9 8 8 8 23 21 22 19 12 15 13 16 12 9 7 6 5 4 4 3 4 3
8 8 8 7 7 7 9 9 9 9 10 10 10 10 9 9 11 15 17 17 15 11 10 8 12 23 24 24 16 27 25 17 9 8 7 6 5 4 4 3 3 2 3
8 7 8 8 9 9 10 9 8 9 8 8 8 8 8 8 8 18 20 21 21 13 9 17 25 26 27 21 25 24 14 7 7 7 6 4 3 3 5 5 3 3 1
7 7 8 8 9 10 8 7 8 8 8 8 7 8 7 7 8 8 10 13 22 16 18 14 17 19 21 17 12 11 7 6 6 6 6 5 5 4 4 3 2 1 2
5 5 6 8 9 10 11 8 8 9 8 6 7 6 7 7 7 11 11 10 10 14 14 11 10 10 10 9 9 8 7 6 6 6 6 5 4 4 2 2 1 0 3
5 5 6 6 7 7 8 11 22 20 21 22 20 13 11 19 24 26 25 23 22 21 11 10 9 8 8 8 8 8 7 8 6 6 6 5 5 4 3 2 1 2 3
4 4 4 6 6 6 7 7 9 15 24 23 23 25 25 21 22 21 21 21 18 14 10 8 9 8 8 7 7 7 7 7 6 7 6 5 4 4 3 4 4 3 3
2 3 4 4 5 6 6 7 7 8 10 11 18 17 21 19 18 18 18 15 10 11 9 8 9 8 8 8 8 8 7 6 7 6 7 6 5 5 5 5 5 4 4
1 3 4 4 4 5 6 7 7 8 9 8 7 12 14 19 20 20 17 9 9 9 8 9 8 8 8 7 7 7 7 7 6 6 6 6 6 6 6 5 5 6 4
2 2 4 4 4 6 5 7 7 7 7 6 6 5 2 4 8 9 8 8 8 8 8 8 8 7 7 7 7 7 7 7 7 7 6 6 6 6 6 5 4 3 3
4 3 3 5 4 4 5 6 6 6 6 6 6 7 12 8 8 8 8 8 8 8 7 7 7 7 6 6 7 7 8 7 7 6 5 5 4 5 4 4 3 2 1
5 5 4 5 5 5 5 6 6 7 7 7 7 8 13 8 8 7 7 7 7 7 6 7 7 7 6 7 7 7 7 7 5 5 5 3 3 3 3 3 1 0 1
7 6 5 5 5 9 6 6 6 7 7 7 6 6 6 7 7 7 7 7 6 7 6 7 8 7 6 6 6 6 6 5 5 4 4 3 3 3 1 1 1 2 3
8 8 7 7 7 6 7 7 7 8 8 8 7 7 7 7 7 8 7 7 7 7 6 6 6 8 6 5 4 4 4 3 3 3 3 2 2 3 1 0 1 2 3
8 8 8 7 8 7 8 8 9 8 8 8 8 7 7 7 8 8 7 6 6 7 7 6 5 6 6 6 4 3 2 4 4 3 3 3 2 2 1 2 1 3 3
8 8 7 7 7 8 8 8 9 9 9 8 8 8 8 7 7 7 6 6 6 6 6 4 5 5 4 3 2 1 3 5 7 9 5 3 1 2 2 4 4 4 5
Wind_Direction
300 299 291 285 280 274 271 272 268 263 258 250 246 236 230 230 234 232 229 222 216 208 200 197 195 191 185 182 183 187 172 160 152 102 136 176 186 186 171 181 176 181 194
305 300 293 286 279 273 267 264 260 256 249 251 243 239 228 223 229 232 227 225 217 208 203 204 194 191 186 181 182 190 190 155 127 159 134 158 184 194 178 176 173 179 197
304 299 294 291 284 276 269 263 256 252 245 240 238 236 227 218 223 234 234 235 220 208 198 196 194 184 186 183 189 189 178 161 141 143 141 141 142 174 167 170 179 187 197
308 298 294 290 288 281 274 266 254 245 241 237 233 230 228 225 225 230 236 240 222 206 197 192 189 180 185 181 186 182 164 146 140 139 146 145 112 171 184 175 181 192 196
309 307 305 300 292 285 277 267 255 242 234 227 225 228 225 224 224 222 229 230 225 195 187 187 183 185 183 182 179 177 167 156 151 149 144 150 137 165 185 176 187 170 203
311 309 305 302 301 297 292 283 264 236 221 215 212 218 217 223 216 212 219 234 200 182 175 166 172 170 172 180 182 177 168 161 155 143 138 179 168 164 167 171 154 163 200
314 311 312 314 311 313 306 300 314 211 190 201 204 206 211 214 215 221 227 234 170 167 156 156 150 159 158 161 166 173 178 180 171 165 162 178 161 170 153 152 168 169 181
316 315 326 324 323 319 320 335 3 77 174 194 197 210 191 205 216 198 189 147 131 139 152 157 159 153 154 151 136 123 112 89 99 105 138 137 114 144 158 156 165 143 91
327 332 333 329 327 333 345 349 4 45 54 70 167 181 185 194 167 125 134 109 106 108 118 138 147 144 149 142 136 136 105 89 87 104 107 110 124 142 136 122 138 151 167
338 334 336 333 337 348 360 358 3 34 45 50 49 55 140 149 153 134 120 114 113 112 101 106 125 134 147 146 141 128 116 120 113 95 81 86 105 125 118 92 149 165 134
326 335 356 344 345 358 15 26 31 38 47 44 56 48 58 74 98 124 126 120 125 119 122 122 142 136 141 134 122 121 121 117 105 98 100 97 93 105 99 84 115 134 172
326 352 349 355 7 25 32 34 40 55 57 48 54 57 45 51 78 97 104 107 119 117 116 115 119 130 122 110 104 118 115 110 112 108 109 113 129 132 124 125 96 58 50
350 8 8 6 27 38 47 47 47 47 56 54 52 57 57 54 67 81 99 103 101 99 105 115 114 98 97 99 113 113 107 109 110 112 121 122 112 101 106 110 101 80 49
14 14 23 25 34 39 45 43 53 48 53 58 62 59 59 66 76 81 85 91 93 96 96 84 93 94 95 99 97 88 89 101 109 110 107 103 112 115 113 93 99 147 293
349 22 40 45 48 57 47 43 52 43 53 60 51 53 69 66 64 84 95 93 91 95 93 91 90 92 91 86 82 84 90 84 88 99 111 122 119 104 80 70 40 240 264
6 24 40 50 45 50 63 67 55 60 62 63 65 74 75 82 78 77 77 81 85 91 85 89 88 90 92 95 93 87 78 84 90 101 100 98 98 101 114 128 153 229 276
53 12 50 63 56 44 50 61 73 60 63 65 68 68 69 79 83 87 89 89 86 92 89 86 86 84 92 94 98 101 94 87 88 88 92 85 94 97 80 61 38 28 11
93 34 70 70 78 75 61 61 63 64 68 67 64 77 76 79 81 91 94 88 73 63 78 89 97 99 98 99 100 101 97 89 77 76 75 67 63 67 73 67 56 40 24
158 120 110 92 73 84 89 80 76 85 93 88 78 60 69 79 78 78 79 81 93 86 86 89 92 93 89 86 79 72 72 72 75 79 71 68 62 71 71 64 73 52 23
151 144 124 122 119 105 102 104 102 97 97 94 86 81 79 101 77 73 75 84 88 87 83 78 71 67 67 72 78 85 87 77 73 72 73 74 69 70 80 80 66 71 54
162 166 135 125 127 126 120 109 108 108 106 91 70 59 66 71 71 61 56 56 65 70 76 79 80 83 90 94 92 88 84 81 77 81 82 80 85 96 93 89 99 94 34
164 165 175 147 137 131 120 120 119 118 116 103 86 79 85 82 88 87 83 83 82 85 92 102 93 81 76 80 85 90 92 97 102 101 98 104 111 104 110 112 124 169 321
157 161 156 146 138 134 131 126 127 127 124 118 116 111 99 103 108 107 105 100 94 91 85 92 96 93 84 81 79 93 109 114 114 116 124 127 140 141 166 108 39 341 346
160 163 165 157 156 147 143 136 121 121 129 130 128 126 122 119 113 107 102 99 94 89 90 90 90 98 97 91 92 84 88 103 122 155 158 169 165 175 190 199 318 304 306
165 157 164 161 154 147 140 136 134 135 135 132 129 122 116 114 111 111 110 108 102 97 83 83 86 100 94 91 90 97 146 190 192 183 190 223 251 214 230 270 296 301 293
164 157 153 152 150 151 147 146 146 144 139 136 132 129 130 124 120 120 118 113 104 98 101 90 93 95 108 109 123 208 225 216 211 205 210 222 252 283 238 267 273 276 289